Weather in Uspenka

Kazakhstan     52˚54′25″N   77˚25′09″E
temp.,
°C
wind,
m/s
gust,
m/s
humid.,
%
clouds,
%
prec.,
mm/h
press.,
hPa
HPBL,
m
28 november, sat
sat2800:00−15˚e33900 0.0 103425
03:00−15˚e34900 0.0 103329
06:00−15˚e34911 0.0 103328
09:00−14˚e458947 0.0 103267
12:00−11˚e478874 0.0 1031162
15:00−10˚e4888100 0.0 1030205
18:00−9˚ene5986100 0.0 1030156
21:00−8˚ene61184100 0.0 1030233
29 november, sun
sun2900:00−7˚ene61285100 0.0 1030292
03:00−6˚ene61193100 0.2 1030353
06:00−7˚ene6995100 1.3 1032300
09:00−6˚ene3596100 1.1 1033159
12:00−8˚sse228799 1.1 103634
15:00−8˚ene1185100 0.0 103821
18:00−10˚ne2288100 0.0 104021
21:00−11˚ne129085 0.0 104221
30 november, mon
mon3000:00−11˚n229189 0.0 104321
03:00−13˚n229348 0.0 104520
06:00−14˚nnw229624 0.0 104620
09:00−14˚nnw229716 0.0 104820
12:00−13˚nnw229517 0.0 104843
15:00−13˚nw23940 0.0 104931
18:00−15˚nw23960 0.0 105120
21:00−16˚nw23960 0.0 105120
1 december, tue
tue100:00−17˚nw23951 0.0 105220
03:00−18˚nw23951 0.0 105320
06:00−18˚nw23951 0.0 105320
09:00−19˚wnw23950 0.0 105420
12:00−16˚wnw239313 0.0 105479
15:00−16˚wnw23921 0.0 105335
18:00−18˚nw22930 0.0 105420
21:00−19˚nw22930 0.0 105420
2 december, wed
wed200:00−19˚nw12930 0.0 105320
03:00−20˚nw12930 0.0 105320
06:00−20˚wnw11930 0.0 105320
09:00−20˚s01930 0.0 105320
12:00−17˚sw11890 0.0 105220
15:00−18˚ese11870 0.0 105120
18:00−19˚ese22880 0.0 105020
21:00−19˚se22890 0.0 104820